Location: Taipo
(41.0000°S, 175.9500°E)
Time: 11:08:20
(UTC+00:00)

GEOS 3 Rocket - Pass Details

Date: 18 April 2024
Orbit: 781 x 835 km, 115.0° (Epoch: 24 May)

Event Time Altitude Azimuth Distance (km) Brightness Sun altitude
Rises 17:04:23 0° 140° (SE) 3,353 7.5 -20.7°
Reaches altitude 10° 17:06:45 10° 135° (SE) 2,423 6.7 -20.2°
Maximum altitude 17:11:53 51° 59° (ENE) 1,028 4.4 -19.3°
Drops below altitude 10° 17:17:02 10° 343° (NNW) 2,429 5.9 -18.3°
Sets 17:19:24 0° 337° (NNW) 3,361 6.6 -17.8°
